When you browse on this site, cookies collect data to enhance your experience and personalize the content and advertising you see.
Visit our Privacy Policy to learn more. By continuing to use the site, you agree to this use of cookies and data.
  • In Schweiz
  • Länderverzeichnis
  • Für 7 Tage
  • Wassertemperatur
  • Wetterkarte
  • Widgets
  • user-avatar
    Anmelden

    Stündliche Wetter Plesna

    Heute, 25 August, Sonntag

    Zeit Temperatur Niederschläge Wind Luftdruck Luftfeuchtigkeit
    00:00 +16°C° 0 mm 2 m/S 744 mmHg 75%
    01:00 +16°C° 0 mm 2 m/S 744 mmHg 75%
    02:00 +15°C° 0 mm 2 m/S 744 mmHg 74%
    03:00 +15°C° 0 mm 2 m/S 744 mmHg 74%
    04:00 +15°C° 0 mm 2 m/S 744 mmHg 73%
    05:00 +14°C° 0 mm 2 m/S 744 mmHg 73%
    06:00 +16°C° 0 mm 2 m/S 744 mmHg 70%
    07:00 +17°C° 0 mm 2 m/S 744 mmHg 68%
    08:00 +18°C° 0 mm 2 m/S 745 mmHg 65%
    09:00 +19°C° 0 mm 3 m/S 745 mmHg 61%
    10:00 +21°C° 0 mm 3 m/S 745 mmHg 56%
    11:00 +24°C° 0 mm 3 m/S 745 mmHg 52%
    12:00 +25°C° 0 mm 3 m/S 745 mmHg 51%
    13:00 +25°C° 0 mm 3 m/S 745 mmHg 50%
    14:00 +26°C° 0 mm 3 m/S 745 mmHg 48%
    15:00 +26°C° 0 mm 3 m/S 744 mmHg 51%
    16:00 +25°C° 0 mm 3 m/S 744 mmHg 54%
    17:00 +25°C° 0 mm 3 m/S 744 mmHg 56%
    18:00 +22°C° 0 mm 3 m/S 744 mmHg 60%
    19:00 +20°C° 0 mm 3 m/S 744 mmHg 64%
    20:00 +18°C° 0 mm 2 m/S 744 mmHg 68%
    21:00 +17°C° 0 mm 2 m/S 744 mmHg 67%
    22:00 +17°C° 0 mm 2 m/S 744 mmHg 67%
    23:00 +16°C° 0 mm 2 m/S 744 mmHg 67%

    Morgen, 26 August, Montag

    Zeit Temperatur Niederschläge Wind Luftdruck Luftfeuchtigkeit
    00:00 +16°C° 0 mm 2 m/S 744 mmHg 68%
    01:00 +15°C° 0 mm 2 m/S 744 mmHg 69%
    02:00 +15°C° 0 mm 2 m/S 744 mmHg 71%
    03:00 +15°C° 0 mm 2 m/S 744 mmHg 73%
    04:00 +14°C° 0 mm 2 m/S 744 mmHg 76%
    05:00 +14°C° 0 mm 2 m/S 744 mmHg 79%
    06:00 +15°C° 0 mm 2 m/S 744 mmHg 76%
    07:00 +17°C° 0 mm 3 m/S 744 mmHg 72%
    08:00 +19°C° 0 mm 3 m/S 744 mmHg 69%
    09:00 +21°C° 0 mm 3 m/S 744 mmHg 64%
    10:00 +23°C° 0 mm 4 m/S 744 mmHg 58%
    11:00 +26°C° 0 mm 4 m/S 744 mmHg 52%
    12:00 +26°C° 0 mm 4 m/S 744 mmHg 50%
    13:00 +27°C° 0 mm 4 m/S 744 mmHg 48%
    14:00 +28°C° 0 mm 4 m/S 744 mmHg 47%
    15:00 +27°C° 0 mm 3 m/S 743 mmHg 50%
    16:00 +27°C° 0 mm 3 m/S 743 mmHg 53%
    17:00 +27°C° 0 mm 2 m/S 743 mmHg 56%
    18:00 +25°C° 0 mm 2 m/S 743 mmHg 62%
    19:00 +23°C° 0 mm 2 m/S 743 mmHg 69%
    20:00 +20°C° 0 mm 2 m/S 743 mmHg 75%
    21:00 +19°C° 0 mm 2 m/S 743 mmHg 78%
    22:00 +18°C° 0 mm 2 m/S 743 mmHg 80%
    23:00 +17°C° 0 mm 2 m/S 743 mmHg 82%

    übermorgen, 27 August, Dienstag

    Zeit Temperatur Niederschläge Wind Luftdruck Luftfeuchtigkeit
    00:00 +17°C° 0 mm 2 m/S 743 mmHg 81%
    01:00 +17°C° 0 mm 2 m/S 743 mmHg 81%
    02:00 +16°C° 0 mm 2 m/S 742 mmHg 80%
    03:00 +16°C° 0 mm 2 m/S 742 mmHg 80%
    04:00 +16°C° 0 mm 2 m/S 742 mmHg 81%
    05:00 +15°C° 0 mm 2 m/S 742 mmHg 81%
    06:00 +17°C° 0 mm 2 m/S 742 mmHg 77%
    07:00 +18°C° 0 mm 2 m/S 743 mmHg 72%
    08:00 +20°C° 0 mm 2 m/S 743 mmHg 68%
    09:00 +23°C° 0 mm 2 m/S 743 mmHg 63%
    10:00 +25°C° 0 mm 2 m/S 743 mmHg 57%
    11:00 +27°C° 0 mm 2 m/S 743 mmHg 52%
    12:00 +27°C° 0 mm 2 m/S 743 mmHg 49%
    13:00 +28°C° 0 mm 2 m/S 743 mmHg 47%
    14:00 +29°C° 0 mm 2 m/S 743 mmHg 45%
    15:00 +28°C° 0 mm 2 m/S 743 mmHg 47%
    16:00 +28°C° 0 mm 2 m/S 742 mmHg 49%
    17:00 +28°C° 0 mm 2 m/S 742 mmHg 52%
    18:00 +25°C° 0 mm 2 m/S 742 mmHg 58%
    19:00 +23°C° 0 mm 2 m/S 742 mmHg 63%
    20:00 +20°C° 0 mm 3 m/S 742 mmHg 69%
    21:00 +20°C° 0 mm 2 m/S 742 mmHg 70%
    22:00 +19°C° 0 mm 2 m/S 742 mmHg 71%
    23:00 +18°C° 0 mm 2 m/S 743 mmHg 72%

    28 August, Mittwoch

    Zeit Temperatur Niederschläge Wind Luftdruck Luftfeuchtigkeit
    00:00 +18°C° 0 mm 2 m/S 743 mmHg 74%
    01:00 +17°C° 0 mm 2 m/S 743 mmHg 76%
    02:00 +17°C° 0 mm 2 m/S 742 mmHg 78%
    03:00 +16°C° 0 mm 2 m/S 743 mmHg 79%
    04:00 +16°C° 0 mm 1 m/S 743 mmHg 81%
    05:00 +16°C° 0 mm 1 m/S 743 mmHg 82%
    06:00 +18°C° 0 mm 1 m/S 743 mmHg 77%
    07:00 +20°C° 0 mm 1 m/S 743 mmHg 73%
    08:00 +21°C° 0 mm 1 m/S 743 mmHg 68%
    09:00 +23°C° 0 mm 2 m/S 743 mmHg 63%
    10:00 +24°C° 0 mm 2 m/S 743 mmHg 58%
    11:00 +26°C° 0 mm 2 m/S 743 mmHg 53%
    12:00 +26°C° 0 mm 2 m/S 743 mmHg 51%
    13:00 +27°C° 0 mm 2 m/S 742 mmHg 49%
    14:00 +28°C° 0 mm 3 m/S 742 mmHg 46%
    15:00 +27°C° 0 mm 3 m/S 742 mmHg 49%
    16:00 +27°C° 0 mm 3 m/S 742 mmHg 53%
    17:00 +26°C° 0 mm 3 m/S 741 mmHg 56%
    18:00 +24°C° 0 mm 3 m/S 741 mmHg 62%
    19:00 +21°C° 0 mm 3 m/S 741 mmHg 67%
    20:00 +19°C° 0 mm 3 m/S 741 mmHg 73%
    21:00 +19°C° 0 mm 3 m/S 741 mmHg 74%
    22:00 +18°C° 0 mm 3 m/S 741 mmHg 75%
    23:00 +17°C° 0 mm 3 m/S 741 mmHg 75%

    29 August, Donnerstag

    Zeit Temperatur Niederschläge Wind Luftdruck Luftfeuchtigkeit
    00:00 +17°C° 0 mm 3 m/S 741 mmHg 76%
    01:00 +16°C° 0 mm 3 m/S 741 mmHg 77%
    02:00 +14°C° 0 mm 3 m/S 741 mmHg 77%
    03:00 +14°C° 0 mm 3 m/S 741 mmHg 77%
    04:00 +13°C° 0 mm 3 m/S 741 mmHg 77%
    05:00 +13°C° 0 mm 3 m/S 741 mmHg 76%
    06:00 +14°C° 0 mm 3 m/S 741 mmHg 74%
    07:00 +15°C° 0 mm 4 m/S 741 mmHg 71%
    08:00 +17°C° 0 mm 4 m/S 741 mmHg 69%
    09:00 +19°C° 0 mm 4 m/S 742 mmHg 64%
    10:00 +21°C° 0 mm 4 m/S 742 mmHg 59%
    11:00 +22°C° 0 mm 5 m/S 742 mmHg 54%
    12:00 +23°C° 0 mm 5 m/S 742 mmHg 53%
    13:00 +23°C° 0 mm 5 m/S 742 mmHg 52%
    14:00 +23°C° 0 mm 5 m/S 741 mmHg 51%
    15:00 +23°C° 0 mm 5 m/S 741 mmHg 52%
    16:00 +22°C° 0 mm 5 m/S 741 mmHg 53%
    17:00 +22°C° 0 mm 4 m/S 741 mmHg 54%
    18:00 +20°C° 0 mm 4 m/S 741 mmHg 56%
    19:00 +18°C° 0 mm 4 m/S 741 mmHg 58%
    20:00 +15°C° 0 mm 4 m/S 741 mmHg 60%
    21:00 +14°C° 0 mm 4 m/S 741 mmHg 58%
    22:00 +13°C° 0 mm 4 m/S 741 mmHg 55%
    23:00 +13°C° 0 mm 3 m/S 742 mmHg 53%

    30 August, Freitag

    Zeit Temperatur Niederschläge Wind Luftdruck Luftfeuchtigkeit
    00:00 +12°C° 0 mm 3 m/S 742 mmHg 53%
    01:00 +11°C° 0 mm 3 m/S 742 mmHg 54%
    02:00 +11°C° 0 mm 3 m/S 742 mmHg 54%
    03:00 +10°C° 0 mm 3 m/S 742 mmHg 55%
    04:00 +10°C° 0 mm 3 m/S 742 mmHg 55%
    05:00 +10°C° 0 mm 3 m/S 742 mmHg 56%
    06:00 +11°C° 0 mm 4 m/S 742 mmHg 56%
    07:00 +12°C° 0 mm 4 m/S 742 mmHg 56%
    08:00 +14°C° 0 mm 4 m/S 742 mmHg 55%
    09:00 +17°C° 0 mm 4 m/S 742 mmHg 51%
    10:00 +19°C° 0 mm 4 m/S 743 mmHg 47%
    11:00 +20°C° 0 mm 4 m/S 743 mmHg 43%
    12:00 +21°C° 0 mm 4 m/S 743 mmHg 42%
    13:00 +22°C° 0 mm 4 m/S 742 mmHg 40%
    14:00 +22°C° 0 mm 4 m/S 742 mmHg 39%
    15:00 +22°C° 0 mm 4 m/S 742 mmHg 41%
    16:00 +22°C° 0 mm 3 m/S 742 mmHg 43%
    17:00 +22°C° 0 mm 3 m/S 742 mmHg 45%
    18:00 +19°C° 0 mm 3 m/S 742 mmHg 51%
    19:00 +17°C° 0 mm 3 m/S 741 mmHg 56%
    20:00 +14°C° 0 mm 3 m/S 741 mmHg 61%
    21:00 +14°C° 0 mm 3 m/S 742 mmHg 60%
    22:00 +13°C° 0 mm 3 m/S 742 mmHg 60%
    23:00 +12°C° 0 mm 3 m/S 742 mmHg 59%
    Mehr zeigen